Simultaneous Nadir Overpasses (SNOs) Predictions

Prediction of SNOs between GOES-17 and LANDSAT-8 Satellite Orbit:

Table of predicted SNOs for the next 14.0 days since TLE Epoch: 5/29/2022
Index Date Time (GOES-17) GOES-17 Lat,Lon LANDSAT-8 Lat,Lon Distance(km) Time Diff (sec)
1 05/30/2022 07:07:15 -0.05,-137.18 0.70,-133.51 416.93 80
2 05/30/2022 19:25:52 0.05,-137.18 0.34,-138.68 170.37 80
3 06/01/2022 19:16:22 0.04,-137.16 -0.25,-135.72 163.04 80
4 06/02/2022 07:35:07 -0.04,-137.15 -0.84,-140.92 427.85 80
5 06/03/2022 19:04:13 0.04,-137.13 -0.90,-132.77 495.83 80
6 06/04/2022 07:22:58 -0.03,-137.13 -0.18,-137.97 95.22 80
7 06/06/2022 07:13:28 -0.03,-137.10 0.42,-135.01 237.17 80
8 06/06/2022 19:32:04 0.03,-137.09 0.68,-140.17 350.58 80
9 06/08/2022 19:19:54 0.03,-137.05 0.06,-137.21 18.69 80
10 06/10/2022 19:10:24 0.02,-137.01 -0.55,-134.26 312.58 80
11 06/11/2022 07:29:09 -0.02,-137.00 -0.52,-139.46 278.80 80
